Terug naar catalogus

THORAD AGENA D DEB

ActiefLEO
NORAD 4679·DEBRIS·🇺🇸 United States

Gelanceerd Apr 8, 1970 vanaf Vandenberg Space Force Base

Loading…

Volgende Passages (komende 24 uur)

TLE

VersSource: Space-Track

Epoch: Sep 14, 2026, 09:11 UTC

1 04679U 70025BC  26257.38302236  .00000257  00000-0  35656-3 0  9991
2 04679 100.1925  83.2144 0017387 338.2576 140.0272 13.68732620802428

Volg THORAD AGENA D DEB in realtime met AllMySat

Download on the App Store